Regional Weather Roundup
Issued by NWS

Home | Current Version | Previous Version | Text Only | Print | Product List | Glossary On
Versions: 1 2 3 4 5 6 7 8 9 10 11 12 13 14 15 16 17 18 19 20 21 22 23 24 25 26 27 28 29 30 31 32 33 34 35 36 37 38 39 40 41 42 43 44 45 46 47 48 49 50
000
ASUS46 KSEW 100910
RWRWA

WASHINGTON REGIONAL WEATHER ROUNDUP
NATIONAL WEATHER SERVICE SEATTLE WA
100 AM PST SAT DEC 10 2016

NOTE:"FAIR" INDICATES FEW OR NO CLOUDS BELOW 12,000 FEET WITH NO
SIGNIFICANT WEATHER AND/OR OBSTRUCTIONS TO VISIBILITY.

WAZ507-509-555>559-101000-
SEATTLE, TACOMA, EVERETT, AND VICINITY

CITY           SKY/WX    TMP DP  RH WIND       PRES   REMARKS
EVERETT        CLOUDY    33  32  96 SE8       29.80S
BOEING FIELD   CLOUDY    36  36 100 SE13      29.83S
RENTON         CLOUDY    35  33  92 SE6       29.84R
SEATAC AIRPORT CLOUDY    37  36  96 SE12      29.82S
JBLM-MCCHORD   MOCLDY    37  37 100 S8        29.83R
PUYALLUP         N/A     39  39 100 CALM      29.83S
BREMERTON      CLOUDY    37  36  93 S9G16     29.82F
JBLM-FT LEWIS  PTCLDY    37  37 100 SE9       29.82F
TACOMA NARROWS CLOUDY    40  38  93 S12       29.82S
$$

WAZ001-503-506-510-514-515-101000-
NORTH INTERIOR

CITY           SKY/WX    TMP DP  RH WIND       PRES   REMARKS
BELLINGHAM     CLOUDY    31  30  96 N6        29.81R
FRIDAY HARBOR  LGT RAIN  41  38  89 VRB6      29.80S
EASTSOUND      CLOUDY    39  37  93 S10       29.78R
PORT ANGELES   CLOUDY    34  34 100 SW5       29.79S
EDIZ HOOK      CLOUDY    38  37  93 S6        29.80S
PORT TOWNSEND    N/A     37  37 100 CALM      29.81S
NAS WHIDBEY    MOCLDY    39  34  82 SE7       29.85R
ARLINGTON      CLOUDY    36  25  64 CALM      29.85S
BURLINGTON     CLOUDY    37  36  93 VRB5      29.82S
$$

WAZ020-022-039-040-504-511-512-101000-
SOUTHWEST INTERIOR

CITY           SKY/WX    TMP DP  RH WIND       PRES   REMARKS
SHELTON        LGT RAIN  37  35  92 CALM      29.80S FOG
OLYMPIA        PTCLDY    36  36 100 SW8       29.84S
CHEHALIS       CLOUDY    37  36  93 S8G14     29.85F
KELSO          LGT RAIN  35  34  96 SE10      29.90R WCI  27
VANCOUVER      LGT RAIN  34  32  92 CALM      29.90F
SCAPPOOSE, OR  CLOUDY    33  31  92 S3        29.90F
PORTLAND, OR   LGT RAIN  33  31  92 SE7       29.92R
$$

WAZ021-516-517-101000-
WASHINGTON COAST

CITY           SKY/WX    TMP DP  RH WIND       PRES   REMARKS
FORKS          CLOUDY    36  36 100 E7        29.79R
HOQUIAM        MOCLDY    37  37 100 NE6       29.81F
ASTORIA, OR    MOCLDY    41  37  86 NE5       29.85R
$$

WAZ019-023-024-040-567>569-101000-
CASCADE MOUNTAINS AND COLUMBIA GORGE

CITY           SKY/WX    TMP DP  RH WIND       PRES   REMARKS
STAMPEDE PASS  HVY SNOW  13  12  96 E5        29.73S VSB 1/4
TROUTDALE, OR  FRZ RAIN  32  29  88 E18G24    29.91F WCI  20
THE DALLES, OR LGT SNOW  26  24  92 CALM      30.00F FOG
$$

WAZ026-027-041>044-520-521-101000-
EAST SLOPES

CITY           SKY/WX    TMP DP  RH WIND       PRES   REMARKS
OMAK           LGT SNOW  20  17  88 CALM      29.95R FOG
WENATCHEE      LGT SNOW  21  20  96 CALM      29.94F FOG
ELLENSBURG     CLOUDY    21  17  84 N5        29.90S
YAKIMA         LGT SNOW  23  19  85 W3        29.94F VSB 1
$$

WAZ028-034-035-101000-
COLUMBIA BASIN

CITY           SKY/WX    TMP DP  RH WIND       PRES   REMARKS
EPHRATA        LGT SNOW  22  16  78 NW7       29.92F
MOSES LAKE     LGT SNOW  23  20  88 N7        29.92F VSB 3/4
PASCO          CLOUDY    24  23  96 NW5       29.98F
HERMISTON, OR  CLOUDY    24  22  91 W5        29.95F FOG
$$

WAZ036>038-101000-
NORTHEAST WASHINGTON

CITY           SKY/WX    TMP DP  RH WIND       PRES   REMARKS
SPOKANE GEIGER LGT SNOW  19  16  88 NE9       29.84F FOG
SPOKANE FELTS  LGT SNOW  21  18  88 CALM      29.88F FOG
FAIRCHILD AFB  LGT SNOW  18  18  98 NE9       29.82F FOG
COEURDALENE,ID LGT SNOW  18  15  88 NE14      29.86F FOG     WCI   4
DEER PARK      LGT SNOW  19  15  84 N6        29.86F FOG
$$

WAZ029>033-101000-
SOUTHEAST WASHINGTON

CITY           SKY/WX    TMP DP  RH WIND       PRES   REMARKS
PULLMAN        CLOUDY    29  27  92 E7        29.82F
LEWISTON, ID   CLOUDY    26  23  88 S3        29.89F
WALLA WALLA    MOCLDY    22  19  89 CALM      29.88F FOG
PENDLETON, OR  CLOUDY    22  19  89 NW5       29.87F
$$



USA.gov is the U.S. government's official web portal to all federal, state and local government web resources and services.